sat.trackr.live / text

‹ back to catalog

STARLINK-31843

NORAD 59722 · 2024-088Q

PAYLOAD ACTIVE UNKNOWN

§ Identity

Operator
Country
US
Launch date
2024-05-10
Launch site
AFWTR
Launch vehicle
Mass (kg)
RCS (m²)

Purposes: comms

External: N2YO · Heavens-Above · Gunter

§ Orbital elements

Epoch: 2026-05-25T03:29:34.149696Z

Period
94.10 min
Inclination
53.1590°
Eccentricity
0.0001852
Mean motion
15.30240830 rev/d
Perigee alt
473.8 km
Apogee alt
476.4 km
Semi-major
6,853.2 km
B*
2.3180e-4
RAAN
145.0785°
Arg perigee
81.2875°
Mean anomaly
278.8336°
Rev number
11,538

§ Raw data

STARLINK-318431 59722U 24088Q   26145.14553414  .00006520  00000+0  23180-3 0  99912 59722  53.1590 145.0785 0001852  81.2875 278.8336 15.30240830115388

JSON: /api/v1/satellites/59722 · /tle

For live sub-satellite position, see the globe view (requires WebGL).

§ Visibility from observer

Set your observer location to see the next 7 days of passes ≥ 10°. The values pass through the URL so the page stays shareable.

No JS? Fill the form by hand. The geolocation button needs JavaScript.